Change the Weather History Date:

Sunday, June 30, 2013

  Actual Average Record
Temperature  
Mean Temperature 78 °F -  
Max Temperature 93 °F 91 °F 104 °F (2011)
Min Temperature 66 °F 68 °F 60 °F (2008)
Cooling Degree Days 14    
Growing Degree Days 28 (Base 50)    
Moisture  
Dew Point 53 °F    
Average Humidity 43    
Maximum Humidity 81    
Minimum Humidity 21    
Precipitation  
Precipitation 0.02 in - - ()
Sea Level Pressure  
Sea Level Pressure 29.95 in    
Wind  
Wind Speed 10 mph (NE)    
Max Wind Speed 20 mph    
Max Gust Speed 31 mph    
Visibility 10 miles    
Events Rain , Thunderstorm    
Averages and records for this station are not official NWS values.
T = Trace of Precipitation, MM = Missing Value Source: NWS Daily Summary

Daily Weather History Graph

Daily Weather History Graph

Search for Another Location

Airport or City:

Trip Planner

Search our weather history database for the weather conditions in past years. The results will help you decide how hot, cold, wet, or windy it might be!

Date:

Astronomy

Jun. 30, 2013 Rise Set
Actual Time 6:25 AM CDT 8:54 PM CDT
Civil Twilight 5:56 AM CDT 9:23 PM CDT
Nautical Twilight 5:19 AM CDT 10:00 PM CDT
Astronomical Twilight 4:39 AM CDT 10:40 PM CDT
Moon 1:13 AM CDT 2:20 PM CDT
Length of Visible Light 15h 27m
Length of Day
14h 28m
Last Quarter, 45% of the Moon is Illuminated
Jun 30
Last Quarter
Jul 8
New
Jul 15
First Quarter
Jul 22
Full
Jul 29
Last Quarter

Hourly Weather History & Observations

Time (CDT) Temp. Heat Index Dew Point Humidity Pressure Visibility Wind Dir Wind Speed Gust Speed Precip Events Conditions
12:53 AM 75.9 °F - 55.9 °F 50% 29.90 in 10.0 mi NE 8.1 mph - N/A   Clear
1:53 AM 75.9 °F - 55.0 °F 48% 29.90 in 10.0 mi ENE 9.2 mph - N/A   Clear
2:53 AM 73.9 °F - 55.0 °F 52% 29.91 in 10.0 mi ENE 10.4 mph - N/A   Clear
3:53 AM 71.1 °F - 57.9 °F 63% 29.94 in 10.0 mi ENE 6.9 mph - 0.00 in   Mostly Cloudy
4:03 AM 71.6 °F - 59.0 °F 64% 30.00 in 10.0 mi ENE 5.8 mph - N/A Thunderstorm Overcast
4:18 AM 71.6 °F - 57.2 °F 60% 30.02 in 10.0 mi NNW 4.6 mph - 0.00 in Rain Light Rain
4:53 AM 69.1 °F - 61.0 °F 75% 29.96 in 10.0 mi North 4.6 mph - 0.02 in   Mostly Cloudy
5:53 AM 66.9 °F - 61.0 °F 81% 29.97 in 10.0 mi NNW 8.1 mph - N/A   Mostly Cloudy
6:53 AM 66.9 °F - 60.1 °F 79% 29.98 in 10.0 mi North 9.2 mph - N/A   Mostly Cloudy
7:53 AM 72.0 °F - 60.1 °F 66% 29.98 in 10.0 mi NNE 8.1 mph - N/A   Clear
8:53 AM 77.0 °F - 53.1 °F 43% 29.99 in 10.0 mi NE 11.5 mph - N/A   Mostly Cloudy
9:53 AM 81.0 °F 80.4 °F 53.1 °F 38% 29.99 in 10.0 mi NE 13.8 mph - N/A   Clear
10:53 AM 84.0 °F - 52.0 °F 33% 29.99 in 10.0 mi ENE 15.0 mph 20.7 mph N/A   Clear
11:53 AM 86.0 °F - 51.1 °F 30% 29.98 in 10.0 mi NNE 18.4 mph 23.0 mph N/A   Clear
12:53 PM 89.1 °F - 48.9 °F 25% 29.96 in 10.0 mi NE 19.6 mph 31.1 mph N/A   Partly Cloudy
1:53 PM 89.1 °F - 48.9 °F 25% 29.95 in 10.0 mi NE 18.4 mph 27.6 mph N/A   Mostly Cloudy
2:53 PM 91.0 °F - 48.0 °F 23% 29.94 in 10.0 mi NE 13.8 mph 24.2 mph N/A   Clear
3:53 PM 91.9 °F - 46.9 °F 21% 29.91 in 10.0 mi NNE 17.3 mph 24.2 mph N/A   Clear
4:45 PM 91.4 °F - 48.2 °F 23% 29.96 in 10.0 mi North 10.4 mph 21.9 mph N/A   Clear
4:53 PM 91.9 °F - 48.0 °F 22% 29.91 in 10.0 mi NE 18.4 mph 24.2 mph N/A   Clear
5:53 PM 91.0 °F - 48.0 °F 23% 29.91 in 10.0 mi NNE 15.0 mph 23.0 mph N/A   Partly Cloudy
6:53 PM 90.0 °F - 48.9 °F 24% 29.91 in 10.0 mi ENE 13.8 mph - N/A   Partly Cloudy
7:53 PM 86.0 °F - 50.0 °F 29% 29.91 in 10.0 mi ENE 12.7 mph 21.9 mph N/A   Clear
8:53 PM 81.0 °F - 48.0 °F 31% 29.93 in 10.0 mi ENE 15.0 mph - N/A   Clear
9:53 PM 75.9 °F - 48.9 °F 38% 29.96 in 10.0 mi ENE 8.1 mph - N/A   Clear
10:53 PM 73.9 °F - 48.9 °F 41% 30.00 in 10.0 mi ENE 8.1 mph - N/A   Clear
11:53 PM 72.0 °F - 50.0 °F 46% 30.01 in 10.0 mi ENE 10.4 mph - N/A   Clear